[[{"header":{"parameterUnit":"m.s-1","parameterCategory":1,"la1":30.2991,"la2":30.254,"lo1":-89.0895,"lo2":-89.0444,"dy":0.0017,"dx":0.0017,"nx":28,"ny":28,"refTime":"2024-02-04T03:00:00:Z","depth":0,"parameterNumber":2,"parameterNumberName":"U-component_of_WINDS"},"data":[0,0,0,0,0,0,0,0,0,0,0,0,0,0,0,0,0,0,0,0,0,0,0,0,0,0,0,0,0,0,0,0,0,0,0,0,0,0,0,0,0,0,0,0,0,0,0,0,0,0,0,0,0,0,0,0,0,0,-7.47,-7.4699,0,-7.4592,-7.4591,-7.459,-7.4414,-7.441,-7.4407,-7.4404,-7.4295,-7.4295,-7.4295,0,0,0,0,0,0,0,0,0,0,0,0,0,-7.4756,-7.4756,-7.47,-7.4699,-7.4697,-7.4592,-7.4591,-7.4589,-7.4414,-7.441,-7.4406,-7.4403,-7.4295,-7.4295,-7.4295,0,0,0,0,0,0,0,0,0,0,0,0,0,-7.4699,-7.4756,-7.47,-7.4597,-7.4587,-7.4593,-7.4591,-7.4589,-7.4415,-7.441,-7.4405,-7.4401,-7.4295,-7.4295,-7.4295,-7.4393,0,0,-7.4296,-7.4296,0,0,0,0,0,0,0,0,-7.4702,-7.4697,-7.4614,-7.4604,-7.4593,-7.4511,-7.457,-7.4523,-7.4416,-7.448,-7.4404,-7.4398,-7.4371,-7.4364,-7.4355,-7.4388,-7.4383,-7.4296,-7.4296,-7.4296,-7.4296,0,0,0,0,0,0,0,-7.4706,-7.47,-7.4657,-7.4613,-7.46,-7.4557,-7.4543,-7.4561,-7.4454,-7.4474,-7.4461,-7.4451,-7.4364,-7.4355,-7.4351,-7.4382,-7.4296,-7.4296,-7.4296,-7.4296,-7.449,-7.4494,0,0,0,0,0,0,-7.4725,-7.4705,-7.4661,-7.4654,-7.4637,-7.456,-7.4545,-7.4542,-7.4453,-7.4435,-7.4455,-7.4443,-7.4357,-7.4351,-7.4347,-7.4454,-7.4296,-7.4296,-7.4296,-7.4485,-7.4491,-7.4496,0,0,0,0,0,0,-7.4727,-7.4723,-7.4665,-7.4676,-7.4665,-7.4564,-7.4563,-7.4543,-7.4533,-7.4439,-7.4419,-7.4465,-7.4353,-7.4346,-7.4383,-7.4448,-7.4296,-7.4296,-7.4479,-7.4487,-7.4493,-7.4672,0,0,0,0,0,0,-7.473,-7.4725,-7.476,-7.4678,-7.4665,-7.4703,-7.4567,-7.4544,-7.4534,-7.4517,-7.4443,-7.4426,-7.4349,-7.4383,-7.4383,-7.4446,-7.4296,-7.4472,-7.4482,-7.4491,-7.466,-7.4685,-7.4706,0,0,0,0,0,-7.4732,-7.4815,-7.4763,-7.4759,-7.4708,-7.4707,-7.47,-7.4609,-7.454,-7.4575,-7.4515,-7.4429,-7.4442,-7.4389,-7.4386,-7.445,-7.4468,-7.4479,-7.449,-7.465,-7.468,-7.4706,0,0,0,0,0,0,-7.4908,-7.4802,-7.4743,-7.4802,-7.4765,-7.4677,-7.4718,-7.4644,-7.4625,-7.4611,-7.4499,-7.4484,-7.4534,-7.4496,-7.4439,-7.4541,-7.4441,-7.4453,-7.4563,-7.4591,-7.4614,-7.4621,-7.4296,0,0,0,0,0,-7.4954,-7.4961,-7.4869,-7.493,-7.4914,-7.4821,-7.4817,-7.475,-7.4707,-7.469,-7.4632,-7.4594,-7.4589,-7.4589,-7.4579,-7.4655,-7.4635,-7.4698,-7.4721,-7.474,-7.4751,-7.4787,-7.4814,-7.4534,-7.4533,-7.4533,0,0,-7.5048,-7.4991,-7.5003,-7.4964,-7.4927,-7.4938,-7.4808,-7.4825,-7.4832,-7.4693,-7.4723,-7.468,-7.463,-7.4687,-7.4708,-7.4656,-7.4825,-7.4755,-7.4771,-7.4771,-7.4802,-7.4829,-7.4852,-7.4541,-7.454,-7.4539,0,0,-7.5224,-7.5183,-7.5228,-7.5195,-7.5141,-7.5078,-7.509,-7.5014,-7.4979,-7.5008,-7.4904,-7.4911,-7.4906,-7.4874,-7.4858,-7.5026,-7.4945,-7.5026,-7.5146,-7.5183,-7.5205,-7.5224,-7.5283,-7.5305,-7.5037,-7.5038,-7.5038,0,-7.5348,-7.5359,-7.5262,-7.5285,-7.5271,-7.5146,-7.5192,-7.5164,-7.5111,-7.5104,-7.5047,-7.5037,-7.4995,-7.5042,-7.5083,-7.5075,-7.5084,-7.5032,-7.521,-7.5228,-7.5244,-7.5299,-7.5321,-7.5048,-7.5047,-7.5046,-7.5045,0,-7.5514,-7.5524,-7.5567,-7.5518,-7.5509,-7.5544,-7.5452,-7.5456,-7.5391,-7.5335,-7.5366,-7.5312,-7.5289,-7.5296,-7.5232,-7.5334,-7.5303,-7.523,-7.5127,-7.5282,-7.5332,-7.5352,-7.5062,-7.5058,-7.5055,-7.5053,0,0,-7.5795,-7.5692,-7.571,-7.5686,-7.5619,-7.5625,-7.5655,-7.5632,-7.5637,-7.5605,-7.5627,-7.5627,-7.5558,-7.554,-7.5472,-7.5506,-7.564,-7.5427,-7.5424,-7.5467,-7.5748,-7.5802,-7.5828,-7.5588,-7.5592,-7.5595,-7.5752,0,-7.5955,-7.5999,-7.5913,-7.5978,-7.5986,-7.5869,-7.5895,-7.5857,-7.5806,-7.5806,-7.575,-7.5751,-7.5661,-7.5649,-7.5677,-7.5618,-7.5695,-7.5606,-7.5607,-7.5608,-7.562,-7.5854,-7.5911,-7.6061,-7.5771,-7.5774,-7.5776,0,-7.6148,-7.6126,-7.6191,-7.612,-7.6121,-7.6145,-7.6118,-7.612,-7.6075,-7.6036,-7.6017,-7.5938,-7.5962,-7.5867,-7.5899,-7.584,-7.5836,-7.5808,-7.5811,-7.5806,-7.57,-7.5853,-7.6107,-7.6129,-7.5806,-7.5803,-7.5801,0,-7.6345,-7.6331,-7.6368,-7.6352,-7.6271,-7.6291,-7.6258,-7.6209,-7.6201,-7.6178,-7.6172,-7.6153,-7.6142,-7.613,-7.6048,-7.5985,-7.609,-7.5987,-7.6057,-7.606,-7.6082,-7.6082,-7.6338,-7.6084,-7.6084,-7.6084,-7.6083,0,-7.6531,-7.6576,-7.6455,-7.6478,-7.6525,-7.6427,-7.6476,-7.6432,-7.6389,-7.6401,-7.63,-7.6314,-7.6207,-7.6209,-7.6146,-7.6182,-7.6178,-7.6147,-7.6129,-7.6155,-7.6159,-7.6148,-7.6135,-7.6089,-7.6088,-7.6087,-7.6086,0,-7.6757,-7.6679,-7.6711,-7.6632,-7.6614,-7.6652,-7.6584,-7.6602,-7.6546,-7.6563,-7.6562,-7.6474,-7.6471,-7.639,-7.6371,-7.6328,-7.639,-7.6354,-7.6405,-7.6392,-7.6467,-7.646,-7.6723,-7.6752,-7.6483,-7.6486,-7.6488,0,-7.688,-7.6912,-7.6837,-7.6838,-7.681,-7.6813,-7.6805,-7.6711,-7.6706,-7.6659,-7.6683,-7.6673,-7.6659,-7.6661,-7.6596,-7.6581,-7.6542,-7.6636,-7.6539,-7.6564,-7.6541,-7.654,-7.6542,-7.6655,-7.6659,-7.6661,-7.6664,0,-7.7107,-7.7067,-7.7058,-7.7038,-7.7031,-7.701,-7.6983,-7.699,-7.6886,-7.6887,-7.6884,-7.6873,-7.6854,-7.6845,-7.6819,-7.6785,-7.6708,-7.6695,-7.671,-7.6735,-7.6763,-7.6747,-7.6458,-7.6689,-7.6686,-7.6684,-7.6683,-7.6682,-7.7283,-7.7305,-7.7256,-7.7251,-7.7221,-7.7198,-7.7211,-7.7157,-7.7153,-7.7129,-7.7075,-7.708,-7.7036,-7.6992,-7.6965,-7.6969,-7.6921,-7.6944,-7.6949,-7.6955,-7.6969,-7.6765,-7.6964,-7.6963,-7.6962,-7.6961,-7.6961,0,-7.7502,-7.7466,-7.7462,-7.7427,-7.7423,-7.7352,-7.7319,-7.732,-7.7326,-7.7291,-7.728,-7.7277,-7.7268,-7.7203,-7.7187,-7.7202,-7.7166,-7.7201,-7.7197,-7.7191,-7.7013,-7.7001,-7.723,-7.723,-7.723,-7.723,-7.723,-7.723,-7.7616,-7.765,-7.7605,-7.7623,-7.7586,-7.759,-7.7577,-7.7556,-7.7527,-7.7528,-7.752,-7.7478,-7.7431,-7.7411,-7.74,-7.7381,-7.7379,-7.7426,-7.7395,-7.7229,-7.7203,-7.7178,-7.7166,-7.7427,-7.7427,-7.7572,-7.7573,-7.7574]},{"header":{"parameterUnit":"m.s-1","parameterCategory":1,"la1":30.2991,"la2":30.254,"lo1":-89.0895,"lo2":-89.0444,"dy":0.0017,"dx":0.0017,"nx":28,"ny":28,"refTime":"2024-02-04T03:00:00:Z","depth":0,"parameterNumber":3,"parameterNumberName":"V-component_of_WINDS"},"data":[0,0,0,0,0,0,0,0,0,0,0,0,0,0,0,0,0,0,0,0,0,0,0,0,0,0,0,0,0,0,0,0,0,0,0,0,0,0,0,0,0,0,0,0,0,0,0,0,0,0,0,0,0,0,0,0,0,0,1.089,1.0891,0,1.0979,1.098,1.0981,1.106,1.1061,1.1062,1.1063,1.115,1.1151,1.1152,0,0,0,0,0,0,0,0,0,0,0,0,0,1.0786,1.0788,1.0889,1.0891,1.0892,1.0978,1.098,1.0981,1.106,1.1061,1.1063,1.1064,1.1149,1.1151,1.1152,0,0,0,0,0,0,0,0,0,0,0,0,0,1.0849,1.0788,1.0889,1.0942,1.0948,1.0978,1.098,1.0981,1.106,1.1061,1.1063,1.1064,1.1149,1.1151,1.1153,1.1137,0,0,1.1159,1.116,0,0,0,0,0,0,0,0,1.0845,1.0852,1.0933,1.0938,1.0945,1.101,1.0975,1.1033,1.106,1.1017,1.1063,1.1065,1.1102,1.1108,1.1121,1.1141,1.1144,1.1159,1.1161,1.1161,1.1162,0,0,0,0,0,0,0,1.0841,1.0849,1.0925,1.0934,1.0941,1.0961,1.0971,1.0986,1.105,1.1021,1.1027,1.1037,1.1105,1.1119,1.1124,1.1146,1.1159,1.1161,1.1162,1.1163,1.1161,1.1159,0,0,0,0,0,0,1.0829,1.0845,1.0922,1.0927,1.0898,1.0961,1.0973,1.0987,1.105,1.1061,1.1035,1.104,1.1115,1.1121,1.1127,1.1115,1.1161,1.1163,1.1165,1.1162,1.116,1.1159,0,0,0,0,0,0,1.0826,1.0835,1.0918,1.0888,1.09,1.0961,1.0977,1.0988,1.1002,1.1061,1.1073,1.1038,1.1116,1.1124,1.1135,1.1119,1.1164,1.1166,1.1164,1.1162,1.116,1.109,0,0,0,0,0,0,1.0823,1.0833,1.0828,1.0887,1.0901,1.0925,1.0976,1.0989,1.1006,1.1013,1.1067,1.1077,1.1118,1.1131,1.1137,1.1123,1.1168,1.1165,1.1163,1.116,1.1094,1.1085,1.1078,0,0,0,0,0,1.0819,1.0803,1.0828,1.0836,1.0896,1.0924,1.0932,1.0981,1.1005,1.1,1.1039,1.1075,1.112,1.1132,1.1139,1.1125,1.1166,1.1163,1.116,1.1097,1.1087,1.1079,0,0,0,0,0,0,1.0738,1.0812,1.084,1.0842,1.0877,1.0937,1.0933,1.0968,1.0995,1.1,1.1058,1.107,1.1074,1.1101,1.1113,1.1115,1.1148,1.1147,1.1098,1.1089,1.1081,1.1075,1.117,0,0,0,0,0,1.0721,1.0738,1.0801,1.0798,1.0814,1.087,1.0884,1.0919,1.0956,1.097,1.1009,1.1043,1.1065,1.1078,1.1101,1.1098,1.1112,1.1092,1.1084,1.1078,1.1076,1.1079,1.1072,1.1149,1.1149,1.1149,0,0,1.0685,1.0727,1.0734,1.0783,1.0813,1.083,1.0882,1.0896,1.0909,1.0972,1.0986,1.1016,1.1057,1.1062,1.1065,1.1084,1.1058,1.1074,1.1068,1.107,1.1075,1.1068,1.1061,1.1147,1.1148,1.1148,0,0,1.0629,1.0662,1.0664,1.0695,1.0742,1.078,1.078,1.0837,1.086,1.0875,1.0924,1.094,1.0975,1.1004,1.1023,1.0981,1.1017,1.0987,1.0948,1.095,1.0944,1.0939,1.0926,1.092,1.0985,1.0985,1.0984,0,1.0577,1.0606,1.066,1.0674,1.0694,1.0755,1.0758,1.0784,1.0835,1.0848,1.0868,1.0918,1.0949,1.0963,1.0953,1.0966,1.0969,1.0981,1.094,1.0936,1.0932,1.092,1.0915,1.0981,1.0981,1.0982,1.0982,0,1.0542,1.0561,1.0557,1.0608,1.0628,1.0636,1.0692,1.0705,1.0739,1.0775,1.0791,1.0832,1.0867,1.0872,1.0904,1.0891,1.0901,1.093,1.0965,1.092,1.091,1.0906,1.0975,1.0977,1.0978,1.0979,0,0,1.0435,1.052,1.0517,1.0543,1.06,1.0616,1.0627,1.0663,1.0674,1.0707,1.0719,1.075,1.0779,1.08,1.0836,1.0838,1.0805,1.0867,1.0869,1.0856,1.0796,1.0775,1.0769,1.0829,1.0828,1.0828,1.0793,0,1.039,1.0415,1.0467,1.0476,1.0495,1.0554,1.0564,1.06,1.0635,1.0656,1.0694,1.0716,1.075,1.0764,1.0768,1.0808,1.0794,1.0811,1.084,1.0841,1.083,1.0763,1.074,1.0706,1.0789,1.0789,1.0788,0,1.034,1.0373,1.0385,1.0445,1.0455,1.0463,1.0502,1.0521,1.0564,1.0589,1.0615,1.0656,1.0671,1.0703,1.0726,1.0736,1.0751,1.0773,1.0773,1.0778,1.0812,1.0768,1.0695,1.0691,1.0782,1.0783,1.0783,0,1.0264,1.0311,1.0326,1.0345,1.0414,1.0419,1.0448,1.0493,1.0512,1.0545,1.0559,1.0592,1.0611,1.0636,1.0684,1.0703,1.0702,1.0738,1.0724,1.0723,1.0722,1.0721,1.0652,1.0729,1.0729,1.0729,1.0729,0,1.0208,1.0214,1.0293,1.0302,1.031,1.0369,1.0375,1.0409,1.0449,1.0466,1.0518,1.0532,1.0595,1.0616,1.0654,1.0669,1.0676,1.0697,1.0708,1.0694,1.0691,1.0705,1.0709,1.0728,1.0728,1.0728,1.0729,0,1.0125,1.0178,1.0198,1.0264,1.028,1.0283,1.0339,1.035,1.0389,1.0409,1.0417,1.0477,1.0506,1.0557,1.0599,1.0625,1.0632,1.0649,1.0618,1.0625,1.0609,1.0611,1.0547,1.0543,1.062,1.062,1.0619,0,1.0087,1.0093,1.016,1.0176,1.0204,1.0228,1.0249,1.0308,1.0327,1.0379,1.0383,1.0416,1.0446,1.0489,1.0536,1.0569,1.0588,1.0563,1.0593,1.058,1.059,1.059,1.0591,1.0557,1.0555,1.0555,1.0554,0,1.0014,1.0041,1.007,1.011,1.0134,1.0167,1.0203,1.0212,1.0279,1.0298,1.0329,1.0353,1.0398,1.043,1.0471,1.05,1.0538,1.0544,1.0543,1.053,1.0513,1.0524,1.0602,1.0545,1.0546,1.0547,1.0547,1.0548,0.9954,0.9963,1.0013,1.0045,1.0079,1.0111,1.0126,1.0168,1.0196,1.0238,1.0271,1.03,1.0345,1.0404,1.0431,1.0454,1.0472,1.047,1.047,1.0469,1.0464,1.0508,1.0462,1.0462,1.0462,1.0462,1.0463,0,0.9886,0.9922,0.995,1.0001,1.0026,1.0062,1.0104,1.0122,1.0148,1.0187,1.0217,1.0254,1.0286,1.0337,1.0374,1.0383,1.0401,1.0391,1.0391,1.0398,1.0445,1.0443,1.0375,1.0375,1.0375,1.0375,1.0375,1.0375,0.9854,0.9873,0.9906,0.9943,0.9978,1.0009,1.0031,1.0061,1.0094,1.0134,1.0162,1.0196,1.024,1.0281,1.0313,1.0327,1.0339,1.0323,1.0342,1.0386,1.0394,1.0402,1.04,1.0324,1.0324,1.0293,1.0293,1.0293]}]]